Погода в Лиде

Погода в Лиде : погода сейчас, прогноз погоды и архив. Всё, что Вы хотите узнать о погоде в Лиде!

Хотите узнать прогноз погоды в Лиде? Тогда Вам сюда: Погода в Лиде

Поиск расширенной информации на нашем сайте:

Другие новости

Новости СМИ2

Главная страница сайта

Новости сайта

03.07.2017

Напоминаем, что на нашем специализированном сайте Метеоцентр.Азия вы можете получить высокодетализированные автоматические прогнозы погоды по пунктам России, СНГ и мира в авиационном формате (включающие направление и скорость ветра, видимость, явления погоды, количество и форму облачности, нижнюю и верхнюю границу облачности).


Погода в Лиде - сегодня

Время (UTC), дата Ветер
(°,м/с) 
Видим.   Явления Облачность Т
(°С)
Тd
(°С)
f(%) Тe
(°С)
Pmin
(гПа)
dP
(гПа)
Po
(мм)
O2
(г/м3)
Тmin Tmax R s Состояние
почвы
09 18.06.18 220 (ЮЗ) 15000 м    8/0 средняя 
[Ac trans]
+25.4 +12.2 44 +30  1016.4  0.5  749  274           
12 18.06.18 250 (З) 15000 м    8/3 1000 м средняя, верхняя 
[Cu hum|Ac trans|Ci fib]
+28.2 +9.5 31 +29  1015.7  -0.5  748  272           
15 18.06.18 290 (З) 15000 м    9/4 1000 м средняя, верхняя 
[Cu hum|Ac trans|Ci fib]
+27.2 +11.5 38 +30  1015.2  -0.6  748  272           
18 18.06.18 340 (С) 13000 м    9/0 средняя 
[Ac trans]
+23.4 +11.8 48 +27  1016.5  1.1  749  276    +29.1       
21 18.06.18 тихо ()   10 км  {ливн. осадки}  9/0 средняя 
[Ac trans]
+19.8 +13.9 69 +27  1017  0.3  749  279      0.0     
00 19.06.18 350 (С) 10 км  {ливн. осадки}  9/0 средняя 
[Ac trans]
+18.6 +14.5 77 +28  1017.4  0.3  749  280           
03 19.06.18 010 (С) 10 км    8/0 средняя, верхняя 
[Ac trans|Ci fib]
+17.5 +13 75 +24  1017.6  0.2  749  281      0.0     
06 19.06.18 тихо ()   12000 м    8/0 средняя 
[Ac trans]
+21.2 +12.4 57 +26  1017.7  0.2  750  278  +17.4    0.0     
09 19.06.18 230 (ЮЗ) 15000 м    8/5 1000 м средняя 
[Cu hum|Ac trans]
+24.3 +10.6 42 +26  1016.5  -0.9  749  275           
12 19.06.18 240 (ЮЗ) 4{11}  15000 м    8/6 600 м средняя 
[Cu hum|Ac trans]
+26.2 +7.7 31 +26  1015.4  -1  748  274           
15 19.06.18 260 (З) 4{11}  15000 м    9/9 800 м 
[Sc]
+25.5 +8 33 +26  1015.1  -0.4  748  274           
18 19.06.18 300 (СЗ) 3{11}  12000 м    9/0 средняя 
[Ac trans]
+21.9 +11.5 52 +25  1016  0.7  748  277    +27.4       
21 19.06.18 290 (З) 10 км    8/0 средняя, верхняя 
[Ac trans|Ci fib]
+19.2 +11.5 61 +23  1017.7  1.5  749  280           
00 20.06.18 250 (З) 10 км    ясно 
+16 +11.3 74 +20  1018.4  0.6  750  283           
03 20.06.18 250 (З) 10 км    3/0 средняя 
[Ac trans]
+15.6 +11.3 76 +19  1019  0.4  750  284           
06 20.06.18 260 (З) 12000 м    ясно 
+18.1 +9.5 57 +19  1019.2  0.4  751  282  +15         
09 20.06.18 300 (СЗ) 6-11{11}  15000 м    ясно 
+21.7 +5 34 +22  1019.1  751  279           
12 20.06.18 270 (З) 5-11{11}  20000 м    ясно 
+25 +4.5 27 +25  1017.6  -1.1  750  276           
15 20.06.18 280 (З) 4{11}  20000 м    ясно 
+25.6 +6.1 29 +26  1017.2  -0.4  749  275           
18 20.06.18 280 (З) 3{10}  15000 м    ясно 
+23.8 +7.4 35 +24  1016.9  -0.5  749  276    +25.8       
21 20.06.18 020 (С) 11000 м    ясно 
+19.3 +7.8 47 +20  1017.8  0.7  750  281           
00 21.06.18 тихо ()   10 км    ясно 
+13 +9 77 +13  1017.3  -0.9  749  286           
03 21.06.18 150 (ЮВ) 10 км    3/0 средняя 
[Ac trans]
+13 +8.6 75 +14  1016.7  -0.6  748  286           
06 21.06.18 170 (Ю) 11000 м    8/0 средняя 
[Ac trans]
+19.4 +10.2 55 +21  1015.1  -1.2  748  279  +12.4         
09 21.06.18 190 (Ю) 15000 м    8/4 600 м средняя 
[Cu med, cong|Ac trans]
+26 +9 34 +26  1012.3  -2.2  746  273           
Время (UTC), дата Ветер
(°,м/с) 
Видим.   Явления Облачность Т
(°С)
Тd
(°С)
f(%) Тe
(°С)
Pmin
(гПа)
dP
(гПа)
Po
(мм)
O2
(г/м3)
Тmin Tmax R s Состояние
почвы

Для получения пояснительной информации подведите курсор к названию столбца.

ПОГОДА в Лиде - архив

Всё, что Вы хотите узнать о погоде в Лиде - удобно и подробно!

Выберите нужную дату (начиная с 1 января 2015* года) и нажмите кнопку "Найти".
Будут отображены архивные сводки погоды по пункту Лида, начиная с указанной даты.


Отображать данные в формате CSV (для использования в таблицах Excel)


Внимание! Наш архив погоды предназначен исключительно для личного некоммерческого использования в познавательных целях. Если Вам необходимы официальные справки о состоянии погоды (для производственных, юридических, коммерческих и т.п. целей), обращайтесь в органы Росгидромета.

*Примечание: данная дата относится к архиву по метеостанциям СССР (Россия, СНГ, Балтия).
Архив по метеостанциям Зарубежной Европы и Азии (кроме Китая) хранится 10 дней, по другим регионам земного шара (Китай, Африка, Америка, Австралия, Океания) - 1 день.

Лида - район местоположения метеостанции


Название, широта, долгота, высота метеостанции:
Лида 53.9°ш. 25.3°д. 157 м над ур. моря [Беларусь]

Дополнительная информация

В oтличие oт бoльшинства пoгoдных сайтoв мы публикуем пoдрoбную метеoинфoрмацию в детальнoм прoфессиoнальнoм фoрмате.

Характеристики температуры и влажнoсти вoздуха измеряются на высoте 2 м в тени вдали oт зданий и деревьев.
Скoрoсть ветра измеряется на высoте 10 м (на урoвне рoста челoвека скoрoсть ветра ниже в 1.5-2 раза). Если метеoстанция нахoдится в гoрoде или в лесу, тo скoрoсть ветра занижена на 2-4 м/с пo сравнению с oткрытым местoм. Скoрoсть ветра над акватoриями крупных рек и oзёр, а также на вершинах хoлмoв на 2-5 м/с выше, чем в oбычных услoвиях.
Атмoсфернoе давление в разных тoчках местнoсти мoжет значительнo oтличаться oт давления на метеoстанции, в зависимoсти oт услoвий рельефа (при пoдъёме на 10 м давление пoнижается примернo на 1 мм рт.ст.).